EST,Max TemperatureF,Mean TemperatureF,Min TemperatureF,Max Dew PointF,MeanDew PointF,Min DewpointF,Max Humidity, Mean Humidity, Min Humidity, Max Sea Level PressureIn, Mean Sea Level PressureIn, Min Sea Level PressureIn, Max VisibilityMiles, Mean VisibilityMiles, Min VisibilityMiles, Max Wind SpeedMPH, Mean Wind SpeedMPH, Max Gust SpeedMPH,PrecipitationIn, CloudCover, Events, WindDirDegrees
2014-2-1,60,41,22,30,23,18,88,54,19,30.23,30.11,30.00,10,10,10,14,3,20,0.00,2,,172
2014-2-2,53,41,29,46,38,24,89,75,61,30.16,30.04,29.98,10,9,2,20,3,27,0.17,8,Rain,261
2014-2-3,35,32,28,34,29,24,100,93,85,30.35,30.10,29.93,10,7,1,13,5,17,0.88,8,Rain-Snow,329
2014-2-4,42,33,23,36,28,21,96,83,70,30.37,30.22,29.93,10,10,7,13,1,19,0.26,5,Rain,142
2014-2-5,51,37,23,44,30,18,93,83,73,30.19,29.89,29.66,10,8,2,30,11,41,0.64,8,Rain-Snow,269
2014-2-6,24,22,20,16,14,12,84,73,62,30.40,30.34,30.21,10,9,5,13,5,17,0.02,8,Snow,290
2014-2-7,27,22,16,16,14,11,80,71,62,30.40,30.35,30.25,10,10,7,13,6,17,T,7,Snow,270
2014-2-8,31,23,15,23,19,12,88,76,63,30.37,30.23,30.10,10,8,2,9,2,12,0.02,7,Snow,342
2014-2-9,36,30,24,30,25,17,85,79,72,30.17,30.05,29.91,10,8,2,18,6,27,0.13,8,Snow,263
2014-2-10,25,16,7,17,10,3,83,67,50,30.37,30.24,30.08,10,9,5,13,5,15,T,5,Snow,302
2014-2-11,27,15,3,9,4,-1,86,62,38,30.47,30.39,30.24,10,10,10,10,2,14,0.00,2,,333
2014-2-12,35,19,3,22,11,-2,88,59,29,30.44,30.22,30.00,10,7,1,15,3,23,0.17,4,Snow,166
2014-2-13,30,28,25,27,24,21,92,82,72,30.03,29.69,29.54,10,3,1,16,6,26,0.52,8,Snow,319
2014-2-14,41,34,27,26,20,15,78,58,38,29.74,29.69,29.62,10,10,5,23,9,37,0.01,5,Snow,249
2014-2-15,33,26,19,31,20,10,92,80,67,30.11,29.79,29.54,10,4,1,17,7,25,0.17,8,Snow,303
2014-2-16,30,20,10,21,15,8,84,71,58,30.29,30.11,29.92,10,8,2,21,6,31,0.04,8,Snow,280
2014-2-17,45,26,6,24,13,4,84,55,25,30.40,30.20,29.93,10,10,2,25,6,35,0.07,5,Snow,185
2014-2-18,49,36,23,28,23,16,82,55,28,30.15,30.05,29.91,10,9,2,29,10,40,0.03,3,Snow,227
2014-2-19,53,38,22,42,29,19,96,64,32,30.19,29.95,29.79,10,9,4,28,7,42,0.37,5,Rain,276
2014-2-20,56,39,22,45,31,20,92,65,38,30.18,30.05,29.83,10,10,9,22,5,32,0.00,1,,153
2014-2-21,61,49,37,49,33,18,86,60,34,30.08,29.84,29.67,10,10,10,28,10,41,0.16,3,Rain,220
2014-2-22,54,39,23,23,18,13,81,52,22,30.14,30.09,30.04,10,10,10,21,6,29,0.00,0,,250
2014-2-23,57,40,22,33,27,18,92,59,26,30.08,30.02,29.96,10,8,2,23,5,32,0.29,5,Rain-Snow,315
2014-2-24,32,27,22,26,15,9,85,66,46,30.22,30.13,30.01,10,10,10,23,10,29,T,4,,278
2014-2-25,27,24,20,19,16,12,84,70,55,30.16,30.09,30.00,10,6,2,16,4,20,0.06,8,Snow,291
2014-2-26,24,13,2,17,11,-1,86,62,38,30.06,29.94,29.87,10,5,0,21,7,25,0.10,6,Fog-Snow,284
2014-2-27,26,14,2,6,1,-3,87,63,38,30.16,29.91,29.79,10,10,10,28,12,39,0.00,2,,282
2014-2-28,35,16,-3,13,2,-7,87,56,25,30.34,30.26,30.18,10,10,10,8,1,11,0.00,0,,360